Погода в Головине

Россия / Владимирская область     56°14′11″N   42°16′07″E
темп.,
°C
ветер,
м/с
пор.,
м/с
влажн.,
%
обл.,
%
осадки,
мм/ч
давл.,
гПа
погр.,
м
5 августа, чт
чт500:00+13с226820 0.0 101626
03:00+12сз2268100 0.0 101712
06:00+15ссв2256100 0.0 101884
09:00+18ссв124767 0.0 1018256
12:00+24юв12365 0.0 10181587
15:00+24ююв1235100 0.0 10172275
18:00+22всв3547100 0.0 1016247
21:00+19в3848100 0.0 1016199
6 августа, пт
пт600:00+17ссв2253100 0.0 101642
03:00+16в495688 0.1 1015211
06:00+16юв41068100 0.3 1015318
09:00+18ююв4108099 1.1 1014326
12:00+23ю5758100 0.1 1014896
15:00+19юв3673100 0.1 1014346
18:00+17юв2492100 1.1 1015107
21:00+16в4894100 2.1 1014195
7 августа, сб
сб700:00+16в5139187 0.1 1013356
03:00+16в499263 0.4 1013267
06:00+16в369369 0.8 1013202
09:00+21юв357255 1.8 1013481
12:00+21юв257199 0.4 1013228
15:00+29ю663492 0.4 10121123
18:00+28ю1347100 0.0 1012155
21:00+23вюв3952100 0.0 1012187
8 августа, вс
вс800:00+20вюв4963100 0.0 1012166
03:00+19ююв395687 0.0 1013178
06:00+19ююв3858100 0.0 1013194
09:00+25ю354092 0.0 1013413
12:00+30ю452936 0.0 10131278
15:00+32юз572892 0.0 10131961
18:00+28з464996 0.0 1014445
21:00+22зсз2576100 0.0 1015128
9 августа, пн
пн900:00+19зсз1288100 0.4 101718
03:00+17зсз2288100 0.6 101815
06:00+17зсз228428 0.0 101877
09:00+22зсз336253 0.0 1018535
12:00+27з344244 0.0 10181496
15:00+28з3439100 0.0 10181797
18:00+26сз2448100 0.0 1017215
21:00+20ссз2264100 0.0 101820